Home   Weather   Neumünster   Past weeks
Flag for Germany

Past Weather in Neumünster, Schleswig-Holstein, Germany — Yesterday and Last 2 Weeks

Now
36 °F

Overcast.


Feels Like: 36 °F
Forecast: 60 / 35 °F
Wind: 1 mph from Southwest

Location: Itzehoe

Current Time: Apr 4, 2020 at 9:10:25 am

Latest Report: Apr 4, 2020 at 7:00 am


Visibility: 19 mi

Pressure: 30.17 "Hg

Humidity: 87%

Dew Point: 32 °F

Location of NeumünsterLocation

Past Weather in Neumünster — Graph

°F

Neumünster Temperature Yesterday

Maximum temperature yesterday: 48 °F (at 3:00 pm)
Minimum temperature yesterday: 38 °F (at 10:00 pm)
Average temperature yesterday: 43 °F

High & Low Weather Summary for the Past Weeks

 TemperatureHumidityPressure
High57 °F (Mar 27, 2:00 pm)94% (Mar 28, 6:00 am)30.71 "Hg (Mar 28, 6:00 am)
Low26 °F (Mar 31, 7:00 am)28% (Mar 25, 12:00 pm)29.65 "Hg (Apr 2, 9:00 pm)
Average40 °F63%30.34 "Hg
* Reported Mar 20 6:00 am — Apr 4 7:00 am, Neumünster. Weather by CustomWeather, © 2020

Note: Actual official high and low records may vary slightly from our data, if they occured in-between our weather recording intervals... More about our weather records

Neumünster Weather History for the Previous 24 Hours

Scroll right to see more
 ConditionsComfort  
Time TempWeatherWind HumidityBarometerVisibility
7:00 am
Sat, Apr 4
36 °FOvercast.1 mph87%30.17 "Hg19 mi
6:00 am36 °FOvercast.2 mph88%30.16 "Hg19 mi
4:00 am32 °FClear.2 mph94%30.14 "Hg14 mi
3:00 am31 °FPassing clouds.1 mph94%30.13 "Hg16 mi
1:00 am31 °FClear.1 mph91%30.10 "Hg22 mi
12:00 am35 °FClear.1 mph94%30.08 "Hg22 mi
10:00 pm
Fri, Apr 3
38 °FPassing clouds.2 mph79%30.06 "Hg22 mi
9:00 pm40 °FClear.1 mph74%30.04 "Hg22 mi
7:00 pm44 °FSunny.5 mph61%30.00 "Hg28 mi
6:00 pm46 °FScattered clouds.5 mph66%29.98 "Hg25 mi
4:00 pm48 °FSunny.6 mph54%29.95 "Hg22 mi
3:00 pm48 °FPassing clouds.6 mph52%29.93 "Hg25 mi
1:00 pm46 °FPassing clouds.5 mph64%29.91 "Hg28 mi
12:00 pm42 °FOvercast.6 mph73%29.90 "Hg22 mi
10:00 am44 °FPassing clouds.6 mph71%29.84 "Hg22 mi
9:00 am42 °FPartly sunny.5 mph72%29.81 "Hg22 mi
Weather by CustomWeather, © 2020

See weather overview

Advertising